Weather History for EGMH - November, 2013

Change the Weather History Date:

Friday, November 29, 2013

  Actual Average Record
Temperature  
Mean Temperature 46 °F -  
Max Temperature 49 °F - - ()
Min Temperature 42 °F - - ()
Degree Days  
Heating Degree Days 20    
Moisture  
Dew Point 42 °F    
Average Humidity 87    
Maximum Humidity 100    
Minimum Humidity 76    
Precipitation  
Precipitation 0.00 in - - ()
Sea Level Pressure  
Sea Level Pressure 30.24 in    
Wind  
Wind Speed 11 mph ()    
Max Wind Speed 23 mph    
Max Gust Speed -    
Visibility 6.3 miles    
Events Fog , Rain    
T = Trace of Precipitation, MM = Missing Value Source: Averaged Metar Reports

Daily Weather History Graph

Daily Weather History Graph

Search for Another Location

Airport or City:

Trip Planner

Search our weather history database for the weather conditions in past years. The results will help you decide how hot, cold, wet, or windy it might be!

Date:

Astronomy

Nov. 29, 2013 Rise Set
Actual Time 7:34 AM GMT 3:51 PM GMT
Civil Twilight 6:55 AM GMT 4:29 PM GMT
Nautical Twilight 6:13 AM GMT 5:11 PM GMT
Astronomical Twilight 5:33 AM GMT 5:51 PM GMT
Moon 2:58 AM GMT (11/29) 1:48 PM GMT (11/29)
Length of Visible Light 9h 33m
Length of Day
8h 16m
Waning Crescent, 16% of the Moon is Illuminated
Nov 29
Waning Crescent
Dec 3
New
Dec 9
First Quarter
Dec 17
Full
Dec 25
Last Quarter

Hourly Weather History & Observations

Time (GMT) Temp. Windchill Dew Point Humidity Pressure Visibility Wind Dir Wind Speed Gust Speed Precip Events Conditions
12:00 AM 45 °F - 45 °F 100% 30.52 in 1 mi NW 5.8 mph - - Fog Fog
3:00 AM 45 °F - 45 °F 99% 30.47 in 3 mi WNW 5.8 mph - -   Mist
5:20 AM 44.6 °F 42.2 °F 44.6 °F 100% 30.39 in 1.9 mi SW 4.6 mph - N/A   Mostly Cloudy
5:50 AM 44.6 °F 41.4 °F 44.6 °F 100% 30.39 in 2.2 mi WSW 5.8 mph - N/A   Mostly Cloudy
6:00 AM 44 °F - 44 °F 100% 30.40 in 2 mi SW 6.9 mph - -   Mist
6:20 AM 44.6 °F 41.4 °F 44.6 °F 100% 30.36 in 2.8 mi SW 5.8 mph - N/A   Mostly Cloudy
6:50 AM 44.6 °F 40.7 °F 44.6 °F 100% 30.36 in 5.0 mi WSW 6.9 mph - N/A   Mostly Cloudy
7:20 AM 44.6 °F 40.7 °F 42.8 °F 93% 30.36 in 6.2 mi WSW 6.9 mph - N/A   Mostly Cloudy
7:50 AM 44.6 °F 40.2 °F 42.8 °F 93% 30.33 in 6.2 mi WSW 8.1 mph - N/A   Mostly Cloudy
8:20 AM 44.6 °F 39.7 °F 42.8 °F 93% 30.33 in 6.2 mi WSW 9.2 mph - N/A   Mostly Cloudy
8:50 AM 46.4 °F 41.5 °F 42.8 °F 87% 30.33 in 6.2 mi WSW 10.4 mph - N/A   Mostly Cloudy
9:00 AM 46 °F - 43 °F 84% 30.35 in 11 mi WSW 12.7 mph - -   Mostly Cloudy
9:20 AM 46.4 °F 41.1 °F 42.8 °F 87% 30.30 in 6.2 mi WSW 11.5 mph - N/A   Mostly Cloudy
9:50 AM 46.4 °F 40.7 °F 42.8 °F 87% 30.27 in 6.2 mi WSW 12.7 mph - N/A   Mostly Cloudy
10:20 AM 46.4 °F 40.7 °F 42.8 °F 87% 30.27 in 6.2 mi WSW 12.7 mph - N/A   Mostly Cloudy
10:50 AM 46.4 °F 40.7 °F 42.8 °F 87% 30.27 in 6.2 mi WSW 12.7 mph - N/A   Scattered Clouds
11:20 AM 46.4 °F 40.1 °F 42.8 °F 87% 30.24 in 6.2 mi WSW 15.0 mph - N/A   Partly Cloudy
11:50 AM 48.2 °F - 44.6 °F 87% 30.21 in 6.2 mi West 16.1 mph - N/A   Partly Cloudy
12:00 PM 48 °F - 44 °F 81% 30.23 in 16 mi West 17.3 mph - -  
12:20 PM 48.2 °F - 42.8 °F 82% 30.21 in 6.2 mi West 16.1 mph - N/A   Mostly Cloudy
12:50 PM 50.0 °F - 44.6 °F 82% 30.18 in 6.2 mi West 17.3 mph - N/A   Mostly Cloudy
1:20 PM 50.0 °F - 42.8 °F 76% 30.18 in 6.2 mi West 19.6 mph - N/A   Mostly Cloudy
1:50 PM 48.2 °F - 42.8 °F 82% 30.15 in 6.2 mi West 19.6 mph - N/A   Scattered Clouds
2:20 PM 48.2 °F - 44.6 °F 87% 30.15 in 6.2 mi West 18.4 mph - N/A   Drizzle
2:50 PM 46.4 °F 38.3 °F 44.6 °F 93% 30.15 in 6.2 mi WNW 23.0 mph - N/A   Light Drizzle
3:00 PM 47 °F - 45 °F 88% 30.17 in 22 mi WNW 19.6 mph - - Rain Rain
3:20 PM 46.4 °F 39.5 °F 42.8 °F 87% 30.15 in 6.2 mi WNW 17.3 mph - N/A   Partly Cloudy
3:50 PM 46.4 °F 39.5 °F 42.8 °F 87% 30.15 in 6.2 mi WNW 17.3 mph - N/A   Partly Cloudy
4:20 PM 46.4 °F 39.2 °F 41.0 °F 81% 30.15 in 6.2 mi WNW 18.4 mph - N/A   Partly Cloudy
4:50 PM 44.6 °F 36.6 °F 41.0 °F 87% 30.15 in 6.2 mi WNW 19.6 mph - N/A   Partly Cloudy
5:20 PM 44.6 °F 37.2 °F 39.2 °F 81% 30.15 in 6.2 mi NW 17.3 mph - N/A   Partly Cloudy
5:50 PM 44.6 °F 36.9 °F 39.2 °F 81% 30.15 in - WNW 18.4 mph - N/A   Clear
6:00 PM 44 °F - 39 °F 78% 30.16 in 12 mi WNW 16.1 mph - -   Scattered Clouds
6:20 PM 44.6 °F 36.9 °F 39.2 °F 81% 30.15 in - WNW 18.4 mph - N/A   Clear
6:50 PM 44.6 °F 36.4 °F 39.2 °F 81% 30.15 in - WNW 20.7 mph - N/A   Clear
7:20 PM 44.6 °F 36.1 °F 39.2 °F 81% 30.12 in - WNW 21.9 mph - N/A   Clear
7:50 PM 42.8 °F 34.8 °F 39.2 °F 87% 30.12 in - WNW 17.3 mph - N/A   Clear
8:20 PM 42.8 °F 33.5 °F 39.2 °F 87% 30.12 in - WNW 23.0 mph - N/A   Clear
8:50 PM 42.8 °F 34.0 °F 39.2 °F 87% 30.12 in - WNW 20.7 mph - N/A   Clear
9:00 PM 44 °F - 39 °F 77% 30.14 in 15 mi WNW 16.1 mph - -  
11:50 PM 42.8 °F 33.5 °F 37.4 °F 81% 30.09 in - WNW 23.0 mph - N/A   Clear